GW0571 Weather Reports


time (UTC)temp
C
wind
direction
speed
KPH
gust
KPH
rain 1hr
cm
rain 24hr
cm
rain mn
cm
humidity
%
barometer
mb
20260905181027 20 358 3.2 8.0 0.00 0.00 0.00 70 1012.9
20260905180522 21 355 4.8 8.0 0.00 0.00 0.00 69 1012.9
20260905180017 21 331 3.2 4.8 0.00 0.00 0.00 70 1012.8
20260905175516 21 345 4.8 11.3 0.00 0.00 0.00 66 1013.0
20260905175012 22 331 4.8 4.8 0.00 0.00 0.00 66 1012.9
20260905174507 22 277 3.2 8.0 0.00 0.00 0.00 72 1012.8
20260905174003 21 271 3.2 4.8 0.00 0.00 0.00 71 1012.8
20260905173459 21 262 3.2 8.0 0.00 0.00 0.00 72 1012.7
20260905172954 20 322 0.0 6.4 0.00 0.00 0.00 72 1012.9
20260905172452 20 352 0.0 4.8 0.00 0.00 0.00 74 1013.0
20260905171948 20 351 3.2 11.3 0.00 0.00 0.00 72 1013.1
20260905171444 21 330 3.2 4.8 0.00 0.00 0.00 70 1012.9
20260905170940 21 296 1.6 11.3 0.00 0.00 0.00 73 1012.9
20260905170436 20 343 3.2 9.7 0.00 0.00 0.00 72 1013.0
20260905165936 21 245 4.8 11.3 0.00 0.00 0.00 70 1013.1
20260905165431 22 344 3.2 6.4 0.00 0.00 0.00 67 1013.0
20260905164926 22 248 4.8 8.0 0.00 0.00 0.00 67 1013.1
20260905164420 22 247 6.4 6.4 0.00 0.00 0.00 68 1012.9
20260905163915 21 344 6.4 9.7 0.00 0.00 0.00 70 1013.0
20260905163412 20 337 3.2 11.3 0.00 0.00 0.00 71 1013.1
20260905162908 20 332 1.6 3.2 0.00 0.00 0.00 74 1013.0
20260905162402 20 322 4.8 9.7 0.00 0.00 0.00 71 1013.0
20260905161857 20 343 4.8 14.5 0.00 0.00 0.00 70 1013.3
20260905161356 21 258 3.2 8.0 0.00 0.00 0.00 70 1013.1
20260905160854 21 0 4.8 8.0 0.00 0.00 0.00 72 1013.2
20260905160349 20 47 0.0 4.8 0.00 0.00 0.00 77 1013.2
20260905155843 20 346 3.2 6.4 0.00 0.00 0.00 73 1013.4
20260905155343 21 303 0.0 6.4 0.00 0.00 0.00 74 1013.5
20260905154842 20 229 1.6 4.8 0.00 0.00 0.00 76 1013.4
20260905154338 20 335 1.6 8.0 0.00 0.00 0.00 74 1013.4
20260905153833 20 258 1.6 6.4 0.00 0.00 0.00 73 1013.2
20260905153330 20 317 1.6 4.8 0.00 0.00 0.00 74 1013.3
20260905152824 20 259 1.6 3.2 0.00 0.00 0.00 75 1013.3
20260905152323 20 320 3.2 6.4 0.00 0.00 0.00 75 1013.2
20260905151818 21 331 1.6 9.7 0.00 0.00 0.00 70 1013.2
20260905151313 21 234 4.8 6.4 0.00 0.00 0.00 73 1013.5
20260905150808 20 4 1.6 4.8 0.00 0.00 0.00 75 1013.6
20260905150308 20 346 3.2 8.0 0.00 0.00 0.00 74 1013.6
20260905145805 20 235 6.4 6.4 0.00 0.00 0.00 77 1013.4
20260905145259 20 338 3.2 4.8 0.00 0.00 0.00 81 1013.4
20260905144758 20 33 4.8 12.9 0.00 0.00 0.00 77 1013.3
20260905144254 20 296 0.0 9.7 0.00 0.00 0.00 78 1013.3
20260905143752 19 322 4.8 14.5 0.00 0.00 0.00 80 1013.4
20260905143247 18 1 3.2 6.4 0.00 0.00 0.00 84 1013.4
20260905142745 18 336 3.2 6.4 0.00 0.00 0.00 83 1013.5
20260905142240 18 329 3.2 9.7 0.00 0.00 0.00 84 1013.6
20260905141736 18 339 4.8 11.3 0.00 0.00 0.00 83 1013.5
20260905141232 18 357 4.8 6.4 0.00 0.00 0.00 83 1013.2
20260905140727 19 3 0.0 3.2 0.00 0.00 0.00 81 1013.4
20260905140227 18 210 1.6 8.0 0.00 0.00 0.00 81 1013.2
20260905135721 19 269 0.0 9.7 0.00 0.00 0.00 80 1013.2
20260905135217 18 341 4.8 11.3 0.00 0.00 0.00 83 1013.3
20260905134716 18 269 0.0 3.2 0.00 0.00 0.00 85 1013.3
20260905134215 18 272 1.6 4.8 0.00 0.00 0.00 87 1013.3
20260905133710 17 12 3.2 6.4 0.00 0.00 0.00 87 1013.4
20260905133205 18 273 4.8 12.9 0.00 0.00 0.00 88 1013.5
20260905132704 17 302 0.0 3.2 0.00 0.00 0.00 88 1013.2
20260905132200 17 302 0.0 6.4 0.00 0.00 0.00 90 1013.0
20260905131649 17 88 1.6 4.8 0.00 0.00 0.00 90 1013.0
20260905131144 16 291 3.2 4.8 0.00 0.00 0.00 93 1013.1
20260905130639 16 355 4.8 4.8 0.00 0.00 0.00 96 1013.1
20260905130138 16 272 4.8 6.4 0.00 0.00 0.00 96 1013.2
20260905125632 16 323 1.6 8.0 0.00 0.00 0.00 96 1013.3
20260905125128 15 2 3.2 4.8 0.00 0.00 0.00 96 1013.5
20260905124625 15 20 0.0 4.8 0.00 0.00 0.00 96 1013.8
20260905124121 15 238 3.2 4.8 0.00 0.00 0.00 96 1013.9
20260905123615 15 328 3.2 8.0 0.00 0.00 0.00 96 1013.9
20260905123113 15 330 1.6 3.2 0.00 0.00 0.00 96 1013.9
20260905122607 15 32 0.0 3.2 0.00 0.00 0.00 96 1013.6
20260905122107 15 18 3.2 3.2 0.00 0.00 0.00 96 1013.8
20260905121601 15 269 0.0 8.0 0.00 0.00 0.00 96 1013.9
20260905121057 15 204 0.0 6.4 0.00 0.00 0.00 96 1013.7
20260905120556 15 206 0.0 1.6 0.00 0.00 0.00 96 1013.6
20260905120051 14 315 0.0 3.2 0.00 0.00 0.00 96 1013.6
20260905115550 14 352 3.2 3.2 0.00 0.00 0.00 96 1013.4
20260905115045 14 60 0.0 4.8 0.00 0.00 0.00 96 1013.3
20260905114544 13 62 1.6 3.2 0.00 0.00 0.00 96 1013.1
20260905114043 13 327 0.0 3.2 0.00 0.00 0.00 96 1013.1
20260905113538 13 36 0.0 3.2 0.00 0.00 0.00 96 1013.2
20260905113034 13 103 0.0 3.2 0.00 0.00 0.00 96 1013.1
20260905112529 13 83 3.2 3.2 0.00 0.00 0.00 96 1013.1
20260905112024 13 107 1.6 3.2 0.00 0.00 0.00 96 1013.0
20260905111519 12 131 1.6 3.2 0.00 0.00 0.00 96 1013.0
20260905111018 12 129 0.0 3.2 0.00 0.00 0.00 96 1012.8
20260905110518 12 105 1.6 3.2 0.00 0.00 0.00 96 1013.0
20260905110013 12 104 0.0 3.2 0.00 0.00 0.00 96 1012.8
20260905105507 12 62 0.0 3.2 0.00 0.00 0.00 96 1012.8
20260905105006 12 59 1.6 3.2 0.00 0.00 0.00 96 1012.6
20260905104503 12 103 0.0 1.6 0.00 0.00 0.00 96 1012.6
20260905103957 12 113 1.6 3.2 0.00 0.00 0.00 96 1012.6
20260905103452 12 22 0.0 0.0 0.00 0.00 0.00 96 1012.5
20260905102948 12 49 0.0 3.2 0.00 0.00 0.00 96 1012.5
20260905102444 12 22 0.0 0.0 0.00 0.00 0.00 96 1012.4
20260905101939 12 22 0.0 1.6 0.00 0.00 0.00 96 1012.3
20260905101438 12 60 0.0 1.6 0.00 0.00 0.00 96 1012.5
20260905100932 12 72 1.6 3.2 0.00 0.00 0.00 96 1012.2
20260905100428 12 94 1.6 3.2 0.00 0.00 0.00 96 1012.2
20260905095927 12 89 0.0 1.6 0.00 0.00 0.00 96 1012.2
20260905095422 12 94 0.0 1.6 0.00 0.00 0.00 96 1012.1
20260905094922 12 32 0.0 3.2 0.00 0.00 0.00 96 1012.1
20260905094418 12 89 0.0 3.2 0.00 0.00 0.00 96 1012.1
20260905093916 12 113 0.0 3.2 0.00 0.00 0.00 96 1012.0
20260905093412 12 89 0.0 0.0 0.00 0.00 0.00 96 1012.3
20260905092907 12 110 0.0 3.2 0.00 0.00 0.00 96 1012.1
20260905092402 12 89 0.0 3.2 0.00 0.00 0.00 96 1012.1
20260905091857 12 123 0.0 1.6 0.00 0.00 0.00 96 1012.3
20260905091357 12 95 1.6 1.6 0.00 0.00 0.00 96 1012.1
20260905090856 12 148 0.0 3.2 0.00 0.00 0.00 96 1012.3
20260905090352 12 35 0.0 3.2 0.00 0.00 0.00 96 1012.2
20260905085850 13 94 0.0 3.2 0.00 0.00 0.00 96 1012.1
20260905085345 13 49 0.0 3.2 0.00 0.00 0.00 96 1012.1
20260905084842 13 129 0.0 0.0 0.00 0.00 0.00 96 1012.2
20260905084340 13 89 0.0 1.6 0.00 0.00 0.00 96 1012.1
20260905083835 13 89 0.0 0.0 0.00 0.00 0.00 96 1012.1
20260905083331 13 103 0.0 1.6 0.00 0.00 0.00 96 1012.1
20260905082827 13 119 0.0 1.6 0.00 0.00 0.00 96 1012.4
20260905082322 13 102 0.0 1.6 0.00 0.00 0.00 96 1012.4
20260905081817 13 103 0.0 1.6 0.00 0.00 0.00 96 1012.4
20260905081313 13 50 0.0 1.6 0.00 0.00 0.00 96 1012.2
20260905080811 13 142 0.0 1.6 0.00 0.00 0.00 96 1012.4
20260905080306 13 119 0.0 1.6 0.00 0.00 0.00 96 1012.4
20260905075805 13 50 0.0 1.6 0.00 0.00 0.00 96 1012.3
20260905075306 14 37 0.0 1.6 0.00 0.00 0.00 96 1012.6
20260905074803 14 38 0.0 1.6 0.00 0.00 0.00 96 1012.4
20260905074300 14 217 0.0 0.0 0.00 0.00 0.00 96 1012.5
20260905073755 14 50 0.0 1.6 0.00 0.00 0.00 96 1012.2
20260905073250 14 33 0.0 3.2 0.00 0.00 0.00 96 1012.2
20260905072744 14 25 1.6 3.2 0.00 0.00 0.00 96 1012.4
20260905072239 14 28 1.6 1.6 0.00 0.00 0.00 96 1012.5
20260905071736 15 25 0.0 1.6 0.00 0.00 0.00 96 1012.4
20260905071232 15 13 0.0 3.2 0.00 0.00 0.00 96 1012.4
20260905070726 15 42 0.0 3.2 0.00 0.00 0.00 96
20260905070223 15 27 0.0 1.6 0.00 0.00 0.00 96
20260905065721 15 39 1.6 3.2 0.00 0.00 0.00 96
20260905065215 15 31 0.0 3.2 0.00 0.00 0.00 96
20260905064710 15 6 0.0 1.6 0.00 0.00 0.00 96
20260905064206 15 18 1.6 3.2 0.00 0.00 0.00 96
20260905063704 15 12 0.0 3.2 0.00 0.00 0.00 96
20260905063201 15 23 0.0 3.2 0.00 0.00 0.00 96
20260905062656 15 0 0.0 3.2 0.00 0.00 0.00 96
20260905062156 15 352 0.0 3.2 0.00 0.00 0.00 96
20260905061655 15 5 0.0 3.2 0.00 0.00 0.00 96
20260905061150 14 22 0.0 1.6 0.00 0.00 0.00 96
20260905060645 14 49 1.6 3.2 0.00 0.00 0.00 96
20260905060142 13 104 1.6 3.2 0.00 0.00 0.00 96
20260905055640 13 22 0.0 0.0 0.00 0.00 0.00 96
20260905055136 13 125 1.6 1.6 0.00 0.00 0.00 96
20260905054631 13 125 1.6 1.6 0.00 0.00 0.00 96
20260905054126 13 106 1.6 3.2 0.00 0.00 0.00 96
20260905053621 13 49 0.0 1.6 0.00 0.00 0.00 96
20260905053116 13 116 0.0 3.2 0.00 0.00 0.00 96
20260905052615 13 113 0.0 1.6 0.00 0.00 0.00 96
20260905052110 13 66 0.0 1.6 0.00 0.00 0.00 96
20260905051606 14 32 0.0 1.6 0.00 0.00 0.00 96
20260905051102 14 50 0.0 1.6 0.00 0.00 0.00 96
20260905050558 14 37 0.0 1.6 0.00 0.00 0.00 96
20260905050054 14 77 0.0 1.6 0.00 0.00 0.00 96
20260905045548 14 113 0.0 1.6 0.00 0.00 0.00 96
20260905045044 14 76 0.0 1.6 0.00 0.00 0.00 96
20260905044544 14 124 0.0 1.6 0.00 0.00 0.00 96
20260905044038 15 44 0.0 1.6 0.00 0.00 0.00 96
20260905043538 15 44 0.0 0.0 0.00 0.00 0.00 96
20260905043033 15 50 0.0 1.6 0.00 0.00 0.00 96
20260905042532 15 19 0.0 1.6 0.00 0.00 0.00 96
20260905042027 15 47 0.0 1.6 0.00 0.00 0.00 96
20260905041523 15 89 0.0 1.6 0.00 0.00 0.00 96
20260905041018 15 32 0.0 0.0 0.00 0.00 0.00 96
20260905040517 15 32 0.0 1.6 0.00 0.00 0.00 96
20260905040016 15 37 0.0 0.0 0.00 0.71 0.71 96
20260905035511 15 37 0.0 1.6 0.00 0.71 0.71 96
20260905035008 15 20 1.6 3.2 0.00 0.71 0.71 96
20260905034503 15 55 0.0 1.6 0.00 0.71 0.71 96
20260905034003 16 37 0.0 0.0 0.00 0.71 0.71 96
20260905033457 16 37 0.0 0.0 0.00 0.71 0.71 96
20260905032952 16 37 0.0 3.2 0.00 0.71 0.71 96
20260905032448 16 37 0.0 1.6 0.00 0.71 0.71 96
20260905031943 16 71 0.0 3.2 0.00 0.71 0.71 96
20260905031438 16 28 0.0 1.6 0.00 0.71 0.71 96
20260905030933 16 89 0.0 0.0 0.00 0.71 0.71 96
20260905030429 16 129 0.0 1.6 0.00 0.71 0.71 96
20260905025927 16 50 0.0 1.6 0.00 0.71 0.71 96
20260905025423 16 23 0.0 0.0 0.00 0.71 0.71 96
20260905024920 16 89 0.0 0.0 0.00 0.71 0.71 95
20260905024420 16 89 0.0 1.6 0.00 0.71 0.71 95
20260905023915 17 115 0.0 1.6 0.00 0.71 0.71 95
20260905023410 17 129 0.0 0.0 0.00 0.71 0.71 94
20260905022909 17 129 0.0 0.0 0.00 0.71 0.71 93
20260905022404 17 129 0.0 0.0 0.00 0.71 0.71 92
20260905021859 17 129 0.0 0.0 0.00 0.71 0.71 92
20260905021349 17 129 0.0 0.0 0.00 0.71 0.71 92
20260905020844 17 142 0.0 1.6 0.00 0.71 0.71 92
20260905020338 17 37 0.0 0.0 0.00 0.71 0.71 91
20260905015838 17 44 0.0 1.6 0.00 0.71 0.71 91
20260905015337 17 6 0.0 0.0 0.00 0.71 0.71 91
20260905014831 17 6 0.0 1.6 0.00 0.71 0.71 91
20260905014327 18 341 0.0 1.6 0.00 0.71 0.71 91
20260905013821 17 24 1.6 3.2 0.00 0.71 0.71 91
20260905013318 18 22 0.0 0.0 0.00 0.71 0.71 91
20260905012813 18 37 0.0 1.6 0.00 0.71 0.71 90
20260905012309 18 326 0.0 0.0 0.00 0.71 0.71 88
20260905011805 18 326 0.0 0.0 0.00 0.71 0.71 87
20260905011300 18 326 0.0 1.6 0.00 0.71 0.71 86
20260905010755 18 6 0.0 3.2 0.00 0.71 0.71 86
20260905010250 18 303 1.6 6.4 0.00 0.71 0.71 85
20260905005747 18 350 0.0 4.8 0.00 0.71 0.71 85
20260905005242 18 335 3.2 4.8 0.00 0.71 0.71 86
20260905004741 18 339 1.6 4.8 0.00 0.71 0.71 86
20260905004236 18 351 3.2 4.8 0.00 0.71 0.71 87
20260905003736 18 350 1.6 3.2 0.00 0.71 0.71 88
20260905003232 18 348 0.0 4.8 0.00 0.71 0.71 88
20260905002728 18 338 0.0 3.2 0.00 0.71 0.71 89
20260905002228 18 322 0.0 3.2 0.00 0.71 0.71 89
20260905001723 18 354 0.0 1.6 0.00 0.71 0.71 89
20260905001222 19 0 0.0 3.2 0.00 0.71 0.71 87
20260905000718 19 3 1.6 3.2 0.00 0.71 0.71 85
20260905000213 19 346 1.6 1.6 0.00 0.71 0.71 85
20260904235708 19 326 0.0 1.6 0.00 0.71 0.71 85
20260904235203 19 315 0.0 3.2 0.00 0.71 0.71 85
20260904234657 19 324 0.0 3.2 0.00 0.71 0.71 85
20260904234153 19 344 1.6 3.2 0.00 0.71 0.71 85
20260904233649 19 10 0.0 1.6 0.00 0.71 0.71 85
20260904233144 20 352 0.0 1.6 0.00 0.71 0.71 85
20260904232641 20 13 0.0 3.2 0.00 0.71 0.71 85
20260904232137 20 2 1.6 1.6 0.00 0.71 0.71 85
20260904231632 19 333 0.0 1.6 0.00 0.71 0.71 86
20260904231127 19 322 0.0 0.0 0.00 0.71 0.71 89
20260904230626 20 322 0.0 3.2 0.00 0.71 0.71 87
20260904230122 20 6 0.0 1.6 0.00 0.71 0.71 84
20260904225619 20 44 0.0 3.2 0.00 0.71 0.71 82
20260904225115 20 293 0.0 0.0 0.00 0.71 0.71 80
20260904224609 21 293 0.0 0.0 0.00 0.71 0.71 80
20260904224104 21 293 0.0 0.0 0.00 0.71 0.71 78
20260904223603 21 296 0.0 3.2 0.00 0.71 0.71 76
20260904223059 21 310 0.0 3.2 0.00 0.71 0.71 77
20260904222555 21 298 1.6 4.8 0.00 0.71 0.71 74
20260904222050 22 336 0.0 3.2 0.00 0.71 0.71 73
20260904221550 22 325 0.0 3.2 0.00 0.71 0.71 69
20260904221044 22 315 0.0 4.8 0.00 0.71 0.71 69
20260904220543 22 337 3.2 4.8 0.00 0.71 0.71 69
20260904220039 22 310 3.2 4.8 0.00 0.71 0.71 71
20260904215534 22 306 1.6 4.8 0.00 0.71 0.71 69
20260904215030 22 269 0.0 4.8 0.00 0.71 0.71 72
20260904214525 23 321 1.6 3.2 0.00 0.71 0.71 68
20260904214020 23 335 3.2 11.3 0.00 0.71 0.71 67
20260904213518 24 335 4.8 8.0 0.00 0.71 0.71 63
20260904213015 24 312 3.2 4.8 0.00 0.71 0.71 61
20260904212514 23 251 1.6 14.5 0.00 0.71 0.71 65
20260904212009 23 269 0.0 6.4 0.00 0.71 0.71 64
20260904211504 24 258 8.0 9.7 0.00 0.71 0.71 63
20260904211000 25 262 3.2 3.2 0.00 0.71 0.71 61
20260904210459 24 313 3.2 12.9 0.00 0.71 0.71 60
20260904205955 25 256 3.2 8.0 0.00 0.71 0.71 61
20260904205450 24 257 4.8 6.4 0.00 0.71 0.71 62
20260904204947 24 259 3.2 8.0 0.00 0.71 0.71 61
20260904204443 24 322 3.2 9.7 0.00 0.71 0.71 59
20260904203938 25 260 8.0 16.1 0.00 0.71 0.71 57
20260904203435 23 278 1.6 11.3 0.00 0.71 0.71 65
20260904202930 24 345 3.2 4.8 0.00 0.71 0.71 64
20260904202426 24 269 1.6 8.0 0.00 0.71 0.71 61
20260904201922 24 327 4.8 8.0 0.00 0.71 0.71 61
20260904201417 24 252 4.8 14.5 0.00 0.71 0.71 62
20260904200912 25 265 1.6 6.4 0.00 0.71 0.71 60
20260904200405 24 323 6.4 8.0 0.00 0.71 0.71 62
20260904195900 25 279 4.8 8.0 0.00 0.71 0.71 61
20260904195358 25 308 1.6 8.0 0.00 0.71 0.71 59
20260904194853 23 267 4.8 12.9 0.00 0.71 0.71 61
20260904194352 23 305 4.8 9.7 0.00 0.71 0.71 63
20260904193848 23 310 3.2 8.0 0.00 0.71 0.71 63
20260904193343 23 315 0.0 16.1 0.00 0.71 0.71 62
20260904192838 23 304 1.6 8.0 0.00 0.71 0.71 64
20260904192333 23 314 4.8 8.0 0.00 0.71 0.71 65
20260904191830 24 274 1.6 6.4 0.00 0.71 0.71 63
20260904191326 24 337 6.4 8.0 0.00 0.71 0.71 68
20260904190823 24 258 0.0 8.0 0.00 0.71 0.71 63
20260904190318 24 300 3.2 8.0 0.00 0.71 0.71 62
20260904185814 25 325 4.8 6.4 0.00 0.71 0.71 62
20260904185310 23 324 4.8 8.0 0.00 0.71 0.71 64
20260904184809 23 310 6.4 8.0 0.00 0.71 0.71 65
20260904184304 24 15 4.8 6.4 0.00 0.71 0.71 65
20260904183759 23 327 4.8 11.3 0.00 0.71 0.71 64
20260904183254 23 237 12.9 22.5 0.00 0.71 0.71 64
20260904182749 23 17 1.6 8.0 0.00 0.71 0.71 68
20260904182244 23 271 1.6 6.4 0.00 0.71 0.71 69
20260904181740 23 311 4.8 6.4 0.00 0.71 0.71 66
20260904181240 23 313 4.8 11.3 0.00 0.71 0.71 69